Погода в Новопокровке

Украина / Днепропетровская область     48°03′21″N   34°36′12″E
темп.,
°C
ветер,
м/с
пор.,
м/с
влажн.,
%
обл.,
%
осадки,
мм/ч
давл.,
гПа
погр.,
м
13 мая, чт
чт1300:00+7ю22875 0.0 101223
03:00+6ююз22883 0.0 101222
06:00+7юз2288100 0.0 101331
09:00+12ю23645 0.0 1013566
12:00+17ююв454515 0.0 10131245
15:00+19ююв3445100 0.0 10121128
18:00+19юв235367 0.0 1012834
21:00+14вюв3470100 0.0 101246
14 мая, пт
пт1400:00+13вюв337839 0.0 101138
03:00+12вюв348716 0.0 101059
06:00+12юв35943 0.0 100994
09:00+18ююв4676100 0.0 1009434
12:00+22ююз6749100 0.0 1010902
15:00+23ююз6845100 0.0 10091012
18:00+21ююз5959100 0.0 1009661
21:00+16ююз4117624 0.0 1010200
15 мая, сб
сб1500:00+13зюз38833 0.0 1011130
03:00+12ююз348554 0.0 101260
06:00+12ююз36875 0.0 1012129
09:00+19юз45645 0.0 1013476
12:00+23юз574539 0.0 10131928
15:00+24ююз6743100 0.0 10122288
18:00+22ю455294 0.0 1012887
21:00+18ююз226398 0.0 101314
16 мая, вс
вс1600:00+16ссз236692 0.0 101217
03:00+15св3369100 0.0 101220
06:00+15св357381 0.0 101277
09:00+21всв57585 0.0 1012460
12:00+25всв6749100 0.0 10101531
15:00+26всв6747100 0.0 10091885
18:00+25св595896 0.0 1007608
21:00+18ссв41088100 4.8 1007198
17 мая, пн
пн1700:00+18св489189 0.6 1005154
03:00+16всв348339 0.6 100452
06:00+16в3384100 0.0 100350
09:00+21юв577255 0.0 1003526
12:00+24ююв456330 0.0 1003856
15:00+26ююв555697 0.5 10031482
18:00+23юз566711 2.9 10041052
21:00+18зюз338457 4.2 100634